Location: Kawakawa
(35.3830°S, 174.0670°E)
Time: 00:31:51
(UTC+13:00)

COSMOS 2428 - Pass Details

Date: 24 January 2019
Orbit: 845 x 856 km, 70.9° (Epoch: 18 October)

Event Time Altitude Azimuth Distance (km) Brightness Sun altitude
Exits shadow 22:59:48 36° 101° (E) 1,330 3.4 -24.1°
Drops below altitude 10° 23:04:04 10° 143° (SE) 2,511 5.3 -24.6°
Sets 23:06:41 0° 150° (SSE) 3,456 6.1 -25.0°
